(309832) = 2009 BM177

Discovered at Mount Lemmon on 2009-01-30 by Mt. Lemmon Survey.

Orbit

Orbit type: Main Belt

Note: WebGL enabled browser required.

epoch2024-03-31.0
epoch JD2460400.5
perihelion date2025-08-12.10437
perihelion JD2460899.60437
argument of perihelion (°)83.22808
ascending node (°)178.88382
inclination (°)7.31465
eccentricity0.0840698
perihelion distance (AU)2.2561519
Tisserand w.r.t. Jupiter3.5
ΔV w.r.t. Earth (km/sec)9.6
semimajor axis (AU)2.4632355
mean anomaly (°)232.75630
mean daily motion (°/day)0.25494410
aphelion distance (AU)2.670
period (years)3.87
P-vector [x]-0.13708132
P-vector [y]-0.95167877
P-vector [z]-0.27480216
Q-vector [x]0.99055669
Q-vector [y]-0.13100565
Q-vector [z]-0.04043461
absolute magnitude16.9
phase slope0.15
uncertainty0
referenceMPEC 2024-C115
observations used269
oppositions13
arc length (days)10258
first opposition used1995
last opposition used2023
residual rms (arc-secs)0.69
perturbers coarse indicatorM-v
perturbers precise indicator003Ek
first observation date used1995-10-20.0
last observation date used2023-11-20.0
computer nameMPCLINUX
JD of orbit computation2456966.761154
perihelion JD uncertainty (days)1.6675E-04
argument of perihelion uncertainty (°)5.2735E-05
ascending node uncertainty (°)2.9808E-05
inclination uncertainty (°)6.1570E-06
eccentricity uncertainty 3.2417E-08
perihelion distance uncertainty (AU)8.1239E-08
Minimum Orbit Intersection Distances (in AU)
for orbit epoch: 2460200.5, reference: E2024-CB5
Mercury1.80082
Venus1.53977
Earth1.25555
Mars0.73325
Jupiter2.37502
Saturn6.40504
Uranus15.9494
Neptune27.2356

Observations

275 total observations over interval: 1995 10 20.15365 – 2023 11 20.540580
These data are available for download (format description).

Date (UT) J2000 RA J2000 Dec Magn Location Ref
1995 10 20.15365 00 46 35.68 +01 00 50.2   691 – Steward Observatory, Kitt Peak-Spacewatch MPS 283586
1995 10 20.17436 00 46 34.75 +01 00 41.0   691 – Steward Observatory, Kitt Peak-Spacewatch MPS 283586
1995 10 20.19505 00 46 33.78 +01 00 31.8 20.5 V 691 – Steward Observatory, Kitt Peak-Spacewatch MPS 283586
2007 11 02.41704 04 01 15.92 +11 14 05.0 20.5 V G96 – Mt. Lemmon Survey MPS 283586
2007 11 02.42535 04 01 15.49 +11 14 02.2 20.3 V G96 – Mt. Lemmon Survey MPS 283586
2007 11 02.43366 04 01 15.06 +11 13 59.0 20.4 V G96 – Mt. Lemmon Survey MPS 283586
2007 11 02.44209 04 01 14.62 +11 13 56.7 20.4 V G96 – Mt. Lemmon Survey MPS 283586
2007 11 18.26704 03 46 54.04 +09 51 43.8 20.1 V G96 – Mt. Lemmon Survey MPS 283586
2007 11 18.27484 03 46 53.58 +09 51 41.6 19.9 V G96 – Mt. Lemmon Survey MPS 283586
2007 11 18.28250 03 46 53.11 +09 51 39.3 19.9 V G96 – Mt. Lemmon Survey MPS 283586
2007 11 18.29021 03 46 52.64 +09 51 37.2 20.1 V G96 – Mt. Lemmon Survey MPS 283586
2009 01 30.35980 11 15 07.09 -00 00 25.4 20.3 V G96 – Mt. Lemmon Survey MPS 282690
2009 01 30.36043 11 15 07.05 -00 00 25.5 20.7 V G96 – Mt. Lemmon Survey MPS 282690
2009 01 30.37254 11 15 06.76 -00 00 23.1 20.3 V G96 – Mt. Lemmon Survey MPS 282690
2009 01 30.38380 11 15 06.51 -00 00 20.3 20.2 V G96 – Mt. Lemmon Survey MPS 282690
2009 01 30.38441 11 15 06.51 -00 00 20.4 20.7 V G96 – Mt. Lemmon Survey MPS 282690
2009 01 30.39271 11 15 06.33 -00 00 18.6 20.2 V G96 – Mt. Lemmon Survey MPS 282690
2009 02 21.23793 11 02 15.82 +02 03 24.4   691 – Steward Observatory, Kitt Peak-Spacewatch MPS 282690
2009 02 21.25604 11 02 14.87 +02 03 31.9   691 – Steward Observatory, Kitt Peak-Spacewatch MPS 282690
2009 02 21.27415 11 02 14.04 +02 03 40.9   691 – Steward Observatory, Kitt Peak-Spacewatch MPS 282690
2009 02 28.35591 10 56 23.10 +03 00 22.5 20.1 V G96 – Mt. Lemmon Survey MPS 282690
2009 02 28.36317 10 56 22.74 +03 00 26.3 20.1 V G96 – Mt. Lemmon Survey MPS 282690
2009 02 28.37162 10 56 22.27 +03 00 30.6 20.1 V G96 – Mt. Lemmon Survey MPS 282690
2009 02 28.37779 10 56 21.94 +03 00 33.5 20.2 V G96 – Mt. Lemmon Survey MPS 282690
2009 03 16.17184 10 43 06.90 +05 15 54.3 20.3 V 691 – Steward Observatory, Kitt Peak-Spacewatch MPS 282690
2009 03 16.18570 10 43 06.17 +05 16 01.2 20.0 V 691 – Steward Observatory, Kitt Peak-Spacewatch MPS 282690
2009 03 16.19959 10 43 05.54 +05 16 08.4 20.1 V 691 – Steward Observatory, Kitt Peak-Spacewatch MPS 282690
2009 03 16.33792 10 42 58.78 +05 17 18.1 20.2 V G96 – Mt. Lemmon Survey MPS 282690
2009 03 16.34621 10 42 58.39 +05 17 22.3 20.3 V G96 – Mt. Lemmon Survey MPS 282690
2009 03 16.35433 10 42 57.96 +05 17 26.3 20.4 V G96 – Mt. Lemmon Survey MPS 282690
2009 03 16.36251 10 42 57.56 +05 17 30.2 20.1 V G96 – Mt. Lemmon Survey MPS 282690
2009 03 29.20481 10 34 23.37 +06 57 17.2 19.9 V G96 – Mt. Lemmon Survey MPS 282690
2009 03 29.21227 10 34 23.16 +06 57 20.6 20.2 V G96 – Mt. Lemmon Survey MPS 282690
2009 03 29.21979 10 34 22.87 +06 57 23.6 20.5 V G96 – Mt. Lemmon Survey MPS 282690
2009 03 29.22722 10 34 22.65 +06 57 26.7 20.1 V G96 – Mt. Lemmon Survey MPS 282690
2009 04 18.22133 10 28 56.31 +08 41 25.4 20.6 V G96 – Mt. Lemmon Survey MPS 284489
2009 04 18.22824 10 28 56.28 +08 41 26.4 20.8 V G96 – Mt. Lemmon Survey MPS 284489
2009 04 18.23516 10 28 56.28 +08 41 27.6 20.7 V G96 – Mt. Lemmon Survey MPS 284489
2009 04 18.24208 10 28 56.28 +08 41 29.4 20.5 V G96 – Mt. Lemmon Survey MPS 284489
2010 08 05.28102 20 43 20.08 -08 17 55.4 19.6   704 – Lincoln Laboratory ETS, New Mexico MPS 342006
2010 08 05.29331 20 43 19.46 -08 18 01.3 20.5   704 – Lincoln Laboratory ETS, New Mexico MPS 342006
2010 08 05.30545 20 43 18.71 -08 18 05.4 20.3   704 – Lincoln Laboratory ETS, New Mexico MPS 342006
2010 08 05.31758 20 43 18.16 -08 18 09.8 20.0   704 – Lincoln Laboratory ETS, New Mexico MPS 342006
2010 08 05.32969 20 43 17.45 -08 18 15.5 20.0   704 – Lincoln Laboratory ETS, New Mexico MPS 342006
2010 08 10.89177 20 38 35.45 -08 55 47.9 18.9 V J75 – OAM Observatory, La Sagra MPS 343759
2010 08 10.90465 20 38 34.68 -08 55 53.8 19.2 V J75 – OAM Observatory, La Sagra MPS 343759
2010 08 10.91747 20 38 34.01 -08 55 59.3 19.3 V J75 – OAM Observatory, La Sagra MPS 343759
2011 10 26.43063 05 07 29.209 +13 32 12.30 21.4 w F51 – Pan-STARRS 1, Haleakala MPS 396417
2011 10 26.44514 05 07 28.908 +13 32 08.79 21.3 w F51 – Pan-STARRS 1, Haleakala MPS 396417
2011 10 26.45972 05 07 28.591 +13 32 04.85 21.3 w F51 – Pan-STARRS 1, Haleakala MPS 396417
2011 10 26.47430 05 07 28.273 +13 32 01.25 21.2 w F51 – Pan-STARRS 1, Haleakala MPS 396417
2011 12 01.34190 04 40 41.898 +11 09 16.52 20.8 w F51 – Pan-STARRS 1, Haleakala MPS 402455
2011 12 01.35577 04 40 41.044 +11 09 14.20 20.7 w F51 – Pan-STARRS 1, Haleakala MPS 402455
2011 12 01.36961 04 40 40.184 +11 09 11.76 20.7 w F51 – Pan-STARRS 1, Haleakala MPS 402455
2011 12 01.38344 04 40 39.335 +11 09 09.33 20.6 w F51 – Pan-STARRS 1, Haleakala MPS 402455
2013 03 06.42489 12 07 36.408 -01 34 33.53 20.1 w F51 – Pan-STARRS 1, Haleakala MPS 459183
2013 03 06.43947 12 07 35.757 -01 34 26.61 20.2 w F51 – Pan-STARRS 1, Haleakala MPS 459183
2013 03 06.45407 12 07 35.095 -01 34 19.39 20.2 w F51 – Pan-STARRS 1, Haleakala MPS 459183
2013 03 17.27218 11 59 09.34 -00 00 39.2 19.3 V 703 – Catalina Sky Survey MPS 461608
2013 03 17.28117 11 59 08.95 -00 00 34.7 20.0 V 703 – Catalina Sky Survey MPS 461608
2013 03 17.28567 11 59 08.59 -00 00 32.4 19.6 V 703 – Catalina Sky Survey MPS 461608
2013 03 20.64429 11 56 21.38 +00 29 59.9 19.7 R D29 – Purple Mountain Observatory, XuYi Station MPS 461608
2013 03 20.66117 11 56 20.51 +00 30 07.9 19.5 R D29 – Purple Mountain Observatory, XuYi Station MPS 461608
2013 03 20.67805 11 56 19.69 +00 30 19.0 19.7 R D29 – Purple Mountain Observatory, XuYi Station MPS 461608
2013 04 04.37160 11 44 40.483 +02 39 49.80 20.1 w F51 – Pan-STARRS 1, Haleakala MPS 462618
2013 04 04.38634 11 44 39.821 +02 39 56.98 20.2 w F51 – Pan-STARRS 1, Haleakala MPS 462618
2013 04 04.40103 11 44 39.154 +02 40 04.15 20.0 w F51 – Pan-STARRS 1, Haleakala MPS 462618
2013 04 04.41577 11 44 38.487 +02 40 11.37 19.9 w F51 – Pan-STARRS 1, Haleakala MPS 462618
2013 07 01.26785 12 11 37.654 +02 40 49.33 21.6 w F51 – Pan-STARRS 1, Haleakala MPS 471753
2013 07 01.27311 12 11 38.032 +02 40 47.09 21.4 w F51 – Pan-STARRS 1, Haleakala MPS 471753
2013 07 01.27837 12 11 38.378 +02 40 44.77 21.6 w F51 – Pan-STARRS 1, Haleakala MPS 471753
2013 07 01.28364 12 11 38.758 +02 40 42.94 21.3 w F51 – Pan-STARRS 1, Haleakala MPS 471753
2014 06 24.52545 22 23 03.989 -02 23 12.55 20.9 w F51 – Pan-STARRS 1, Haleakala MPS 521199
2014 06 24.53786 22 23 04.230 -02 23 10.55 21.0 w F51 – Pan-STARRS 1, Haleakala MPS 521199
2014 06 24.54950 22 23 04.452 -02 23 08.64 20.8 w F51 – Pan-STARRS 1, Haleakala MPS 521199
2014 06 24.56118 22 23 04.678 -02 23 06.81 20.9 w F51 – Pan-STARRS 1, Haleakala MPS 521199
2014 08 06.28521 22 14 19.48 -03 32 12.6   691 – Steward Observatory, Kitt Peak-Spacewatch MPS 526438
2014 08 06.30291 22 14 18.68 -03 32 18.9   691 – Steward Observatory, Kitt Peak-Spacewatch MPS 526438
2014 08 06.32062 22 14 17.90 -03 32 25.2   691 – Steward Observatory, Kitt Peak-Spacewatch MPS 526438
2014 08 21.25527 22 02 31.66 -05 19 20.1 19.4 G G45 – Space Surveillance Telescope, Atom Site MPS 1609374
2014 08 21.28433 22 02 30.19 -05 19 34.1 19.4 G G45 – Space Surveillance Telescope, Atom Site MPS 1609374
2014 08 21.32431 22 02 28.03 -05 19 53.4 20.2 G G45 – Space Surveillance Telescope, Atom Site MPS 1609374
2014 08 21.34837 22 02 26.79 -05 20 04.3 18.3 G G45 – Space Surveillance Telescope, Atom Site MPS 1609374
2014 08 21.40133 22 02 24.06 -05 20 29.9 19.6 G G45 – Space Surveillance Telescope, Atom Site MPS 1609374
2014 08 21.43295 22 02 22.39 -05 20 45.3 19.0 G G45 – Space Surveillance Telescope, Atom Site MPS 1609374
2014 08 21.45418 22 02 21.37 -05 20 56.1 19.6 G G45 – Space Surveillance Telescope, Atom Site MPS 1609374
2014 08 31.17049 21 54 26.05 -06 40 45.8 19.9 V 703 – Catalina Sky Survey MPS 538634
2014 08 31.18058 21 54 25.49 -06 40 51.6 20.2 V 703 – Catalina Sky Survey MPS 538634
2014 08 31.18564 21 54 25.27 -06 40 53.1 19.8 V 703 – Catalina Sky Survey MPS 538634
